Location: Newark
(54.2500°N, 9.1833°E)
Time: 06:32:51
(UTC+00:00)

Vanguard 2 Rocket - Pass Details

Date: 15 December 2019
Orbit: 554 x 3326 km, 32.9° (Epoch: 27 January)

Event Time Altitude Azimuth Distance (km) Brightness Sun altitude
Rises 19:44:18 0° 257° (WSW) 6,077 11.8 -39.8°
Reaches altitude 10° 19:50:49 10° 240° (WSW) 4,441 10.8 -40.7°
Maximum altitude 19:56:48 16° 209° (SSW) 3,336 9.8 -41.5°
Enters shadow 19:57:37 16° 203° (SSW) 3,258 9.7 -41.6°
